Regional Weather Roundup
Issued by NWS Wilmington, NC

Home | Current Version | Previous Version | Text Only | Print | Product List | Glossary On
Versions: 1 2 3 4 5 6 7 8 9 10 11 12 13 14 15 16 17 18 19 20 21 22 23 24 25 26 27 28 29 30 31 32 33 34 35 36 37 38 39 40 41 42 43 44 45 46 47 48 49 50
115
ASUS42 KILM 241213
RWRILM
RWRILM
REGIONAL HOURLY WEATHER ROUNDUP
NATIONAL WEATHER SERVICE WILMINGTON NC
800 AM EDT TUE MAY 24 2016

NOTE: "FAIR" INDICATES FEW OR NO CLOUDS BELOW 12,000 FEET WITH NO
SIGNIFICANT WEATHER AND/OR OBSTRUCTIONS TO VISIBILITY.

...............WFO WILMINGTON COUNTY WARNING AREA...............

......COASTAL NC AND SC COUNTIES......

CITY           SKY/WX    TMP DP  RH WIND       PRES   REMARKS
WILMINGTON     SUNNY     61  55  81 W7        30.11R
N MYRTLE BEACH SUNNY     60  55  83 W6        30.13R
MYRTLE BEACH   SUNNY     59  50  72 CALM      30.14

......INLAND NC AND SC COUNTIES.......

CITY           SKY/WX    TMP DP  RH WIND       PRES   REMARKS
LUMBERTON      SUNNY     60  56  86 W3        30.11R
ELIZABETHTOWN  SUNNY     59  53  79 CALM      30.11R
WHITEVILLE     SUNNY     59  53  82 CALM      30.11R
FLORENCE       SUNNY     60  55  83 W5        30.13R
DARLINGTON     SUNNY     59  55  87 SW5       30.13R
KINGSTREE      FAIR      54  52  94 CALM      30.13R
HARTSVILLE     FAIR      57  54  88 W5        30.13R
BENNETTSVILLE  FAIR      59  55  88 CALM      30.12R
CONWAY         FAIR      55  54  94 CALM      30.13R FOG
GEORGETOWN     FAIR      55  54  94 CALM      30.14R
MARION         FAIR      55  54  94 CALM      30.13R

....................REST OF NORTH CAROLINA......................

.........EASTERN NC.........

CITY           SKY/WX    TMP DP  RH WIND       PRES   REMARKS
CAPE HATTERAS  SUNNY     66  55  67 W10       30.07R
JACKSONVILLE   SUNNY     60  55  83 W3        30.11R
MOREHEAD CITY  SUNNY     63  52  67 W5        30.09R
KENANSVILLE    SUNNY     57  53  86 CALM      30.11R
NEW BERN       SUNNY     60  53  77 W6        30.10R
ELIZABETH CITY SUNNY     61  54  77 SW8       30.05R

.........CENTRAL NC.........

CITY           SKY/WX    TMP DP  RH WIND       PRES   REMARKS
RALEIGH DURHAM MOSUNNY   58  55  90 W6        30.10R
ROCKY MOUNT    SUNNY     60  54  80 SW6       30.08R
ROANOKE RAPIDS NOT AVBL
FAYETTEVILLE   SUNNY     61  51  70 W12       30.10R
HOFFMAN        SUNNY     55  53  93 N2        30.11R

.........WESTERN NC.........

CITY           SKY/WX    TMP DP  RH WIND       PRES   REMARKS
CHARLOTTE      MOSUNNY   59  54  83 W6        30.15R
GREENSBORO     MOSUNNY   61  53  75 W6        30.11R
HICKORY        NOT AVBL
BOONE          NOT AVBL
ASHEVILLE      NOT AVBL

.....................REST OF SOUTH CAROLINA.....................

.........EASTERN SC.........

CITY           SKY/WX    TMP DP  RH WIND       PRES   REMARKS
CHARLESTON     MOSUNNY   67  57  70 CALM      30.13R
BEAUFORT MCAS  PTSUNNY   66  61  84 N3        30.13R
HILTON HEAD    SUNNY     70  64  83 NE6       30.14R

.........CENTRAL SC.........

CITY           SKY/WX    TMP DP  RH WIND       PRES   REMARKS
COLUMBIA       MOSUNNY   64  55  72 CALM      30.13R
ORANGEBURG     SUNNY     62  57  83 CALM      30.14R
SUMTER SHAW    SUNNY     63  55  75 SW2       30.12R

.........WESTERN SC.........

CITY           SKY/WX    TMP DP  RH WIND       PRES   REMARKS
GREENVILLE     NOT AVBL
ROCK HILL      SUNNY     61  53  75 W3        30.15R
ANDERSON       SUNNY     63  55  75 CALM      30.16R
CLEMSON        NOT AVBL
GREENWOOD      SUNNY     61  55  81 CALM      30.17R


...................COASTAL AND OFFSHORE REPORTS..................

................LOCAL PIERS AND NC RESERVE................


STATION/POSITION TIME  SKY/WX   TEMP    WIND        PRES    VSBY
                                AIR SEA DIR/SP/G
                 (UTC)          (F)     (DEG/KT/KT) (MB)    (MI)
JOHNY MRCER PIER 1100            59 72  300/  6/  7 1017.8R
NC RESRV MASNBRO NOT AVBL
OCEAN CREST PIER NOT AVBL
SPRINGMAID  PIER NOT AVBL


................COASTAL AND OFFSHORE BUOYS................


STATION/POSITION TIME  SKY/WX   TEMP    WIND        PRES    VSBY
                                AIR SEA DIR/SP/G
                 (UTC)          (F)     (DEG/KT/KT) (MB)    (MI)
DIMNDSHOAL 41025 1150            65 67  290/ 14/ 16 1018.3R
WVE H/P(F/S)=  5/ 9 SWL H/P/D(F/S/D)=  3/100/ 9

CAPE LOOKOUT     1200            67     290/  9/ 11 1018.7R
ONSLOW BAY 41036 NOT AVBL
ONSLOW BAY 41064 1108            68 73  310/  8/ 12 1018.7R
ONSLOW BAY 41159 1155               73                N/A
WVE H/P(F/S)=  2/ 8

5SE WRITBC 41038 1108            64 71  310/  6/  8 1019.3R
MASNBO INL 41110 1106               71                N/A
WVE H/P(F/S)=  1/ 9

WILM HARBR 41108 1156               72                N/A
WVE H/P(F/S)=  2/ 9

27SE WRITB 41037 1108            67 72  330/  8/ 12 1018.7R
FRYING PAN 41013 1100            67 76  330/ 10/ 12 1019.0R
SUNST NRSH 41024 1108            64 72  300/  8/  8 1018.7R
CAPRS NRSH 41029 1108            70 74   50/  4/  6 1019.4R
EDISTO     41004 1150            71 75   20/  4/  6 1019.7R
WVE H/P(F/S)=  2/ 8 SWL H/P/D(F/S/D)=  2/ 8



..........OFFSHORE BUOYS BEYOND 100 NM OFFSHORE...........
.....IN A TRIANGLE---HAT TO BERMUDA TO BAHAMAS TO HAT.....


STATION/POSITION TIME  SKY/WX   TEMP    WIND        PRES    VSBY
                                AIR SEA DIR/SP/G
                 (UTC)          (F)     (DEG/KT/KT) (MB)    (MI)
150E HAT   41001 NOT AVBL
W BERMUDA  41048 1150            74 74  150/  2/  2 1018.3R
WVE H/P(F/S)=  5/ 8 SWL H/P/D(F/S/D)=  5/ 90/ 8

ATLANTIC S 41049 1150            78 78  170/ 12/ 14 1023.0R
WVE H/P(F/S)=  6/ 6 SWL H/P/D(F/S/D)=  5/140/ 6

E BAHAMAS  41046 1100            81 81  140/ 16/ 17 1018.8R
NE BAHAMAS 41047 1100            73 79  340/  6/  8 1017.6F
120E CANVRL41010 1120            77 78   80/  6/  8 1018.5R

END




USA.gov is the U.S. government's official web portal to all federal, state and local government web resources and services.